Location: Unspecified
(49.2170°N, 0.0000°E)
Time: 15:40:33
(UTC+00:00)

Tiros 1 despin weight - Pass Details

Date: 27 January 2021
Orbit: 593 x 642 km, 48.2° (Epoch: 07 March)

Event Time Altitude Azimuth Distance (km) Brightness Sun altitude
Rises 17:42:50 0° 281° (W) 2,871 ? -9.0°
Reaches altitude 10° 17:45:12 10° 276° (W) 1,957 ? -9.4°
Maximum altitude 17:49:30 48° 202° (SSW) 791 ? -10.0°
Drops below altitude 10° 17:53:45 10° 129° (SE) 1,928 ? -10.7°
Enters shadow 17:55:16 - 125° (SE) 2,505 ? -10.9°
Sets 17:56:05 0° 123° (ESE) 2,824 - -11.1°
